Date String (YYYY-MM-DD hh:mm:ss) UTC,Instrument flags,Ambient pressure (hPa),Sample flow (lpm),Bypass flow (lpm),Sample temperature (°C),Ambient temperature (°C),ASC tube jacket temperature (°C),LED temperature (°C),Box temperature (°C),Sample RH (%),Span deviation,Mass concentration (μg/m³),Mass concentration (μg/m³),Mass concentration (μg/m³)
DateTimeUTC,F1_M11,P_M11,Q1_M11,Q2_M11,T1_M11,T2_M11,T3_M11,T4_M11,T5_M11,U1_M11,ZSPAN_M11,X0_M11,X2_M11,X1_M11
2023-02-08 16:00:00,,0823.9,5.01,0.00,23.0,21.8,00.0,31.8,24.8,12.3,0000.0,0006.62,0002.72,0001.92
2023-02-08 16:01:00,,0823.8,4.99,0.00,23.0,21.8,00.0,31.8,24.8,12.4,0000.0,0006.90,0002.88,0002.02
2023-02-08 16:02:00,,0823.8,4.97,0.00,23.0,21.8,00.0,31.8,24.8,12.3,0000.0,0007.17,0003.03,0002.11
2023-02-08 16:03:00,,0823.9,4.98,0.00,23.0,21.8,00.0,31.8,24.8,12.2,0000.0,0007.32,0003.12,0002.19
2023-02-08 16:04:00,,0823.8,4.98,0.00,23.1,21.8,00.0,31.8,24.8,12.0,0000.0,0007.82,0003.17,0002.26
2023-02-08 16:05:00,,0823.9,5.03,0.00,23.1,21.8,00.0,31.8,24.8,11.9,0000.0,0008.22,0003.24,0002.33
2023-02-08 16:06:00,,0823.8,5.00,0.00,23.1,21.9,00.0,31.8,24.8,11.8,0000.0,0008.20,0003.27,0002.41
2023-02-08 16:07:00,,0823.8,5.01,0.00,23.1,21.9,00.0,31.8,24.8,11.7,0000.0,0008.01,0003.26,0002.45
2023-02-08 16:08:00,,0823.8,5.01,0.00,23.1,21.9,00.0,31.8,24.8,11.8,0000.0,0007.16,0003.24,0002.44
2023-02-08 16:09:00,,0823.7,5.00,0.00,23.1,21.9,00.0,31.8,24.9,11.5,0000.0,0007.23,0003.24,0002.45
2023-02-08 16:10:00,,0823.8,4.99,0.00,23.1,21.9,00.0,31.9,24.9,11.3,0000.0,0007.11,0003.24,0002.47
2023-02-08 16:11:00,,0823.8,5.02,0.00,23.1,21.9,00.0,31.9,24.9,11.1,0000.0,0007.14,0003.26,0002.50
2023-02-08 16:12:00,,0823.8,5.00,0.00,23.1,21.9,00.0,31.9,24.9,11.1,0000.0,0007.00,0003.25,0002.52
2023-02-08 16:13:00,,0823.8,4.99,0.00,23.1,21.9,00.0,31.9,24.9,11.0,0000.0,0007.07,0003.26,0002.54
2023-02-08 16:14:00,,0823.8,5.00,0.00,23.1,21.9,00.0,31.9,24.9,11.2,0000.0,0007.27,0003.30,0002.57
2023-02-08 16:15:00,,0823.8,4.99,0.00,23.1,21.9,00.0,31.9,24.9,11.1,0000.0,0006.77,0003.32,0002.59
2023-02-08 16:16:00,,0823.8,4.99,0.00,23.1,21.9,00.0,31.9,24.9,11.3,0000.0,0006.11,0003.31,0002.60
2023-02-08 16:17:00,,0823.7,4.97,0.00,23.2,21.9,00.0,31.9,24.9,11.4,0000.0,0005.99,0003.30,0002.61
2023-02-08 16:18:00,,0823.7,5.01,0.00,23.2,22.0,00.0,31.9,24.9,11.8,0000.0,0007.14,0003.32,0002.62
2023-02-08 16:19:00,,0823.7,5.01,0.00,23.2,22.0,00.0,31.9,24.9,11.6,0000.0,0007.48,0003.36,0002.62
2023-02-08 16:20:00,,0823.7,5.00,0.00,23.2,22.0,00.0,31.9,24.9,11.7,0000.0,0007.46,0003.36,0002.63
2023-02-08 16:21:00,,0823.7,5.01,0.00,23.2,22.0,00.0,31.9,24.9,11.7,0000.0,0007.71,0003.36,0002.63
2023-02-08 16:22:00,,0823.7,5.00,0.00,23.2,22.0,00.0,32.0,24.9,11.7,0000.0,0007.86,0003.31,0002.60
2023-02-08 16:23:00,,0823.7,5.00,0.00,23.2,22.0,00.0,32.0,25.0,12.0,0000.0,0007.79,0003.27,0002.56
2023-02-08 16:24:00,,0823.8,4.96,0.00,23.2,22.0,00.0,32.0,25.0,11.9,0000.0,0007.71,0003.21,0002.52
2023-02-08 16:25:00,,0823.8,5.00,0.00,23.3,22.1,00.0,32.0,25.0,11.9,0000.0,0007.62,0003.17,0002.50
2023-02-08 16:26:00,,0823.7,4.99,0.00,23.3,22.1,00.0,32.0,25.0,11.8,0000.0,0007.51,0003.13,0002.47
2023-02-08 16:27:00,,0823.8,4.99,0.00,23.3,22.1,00.0,32.0,25.0,11.6,0000.0,0007.82,0003.15,0002.43
2023-02-08 16:28:00,,0823.7,5.02,0.00,23.3,22.1,00.0,32.0,25.0,12.0,0000.0,0008.07,0003.16,0002.42
2023-02-08 16:29:00,,0823.7,5.01,0.00,23.3,22.1,00.0,32.0,25.0,12.2,0000.0,0007.54,0003.18,0002.40
2023-02-08 16:30:00,,0823.6,5.01,0.00,23.3,22.1,00.0,32.0,25.0,12.3,0000.0,0007.39,0003.16,0002.39
2023-02-08 16:31:00,,0823.7,5.01,0.00,23.3,22.1,00.0,32.0,25.0,11.9,0000.0,0007.35,0003.16,0002.39
2023-02-08 16:32:00,,0823.7,5.01,0.00,23.3,22.1,00.0,32.1,25.0,11.9,0000.0,0007.23,0003.15,0002.38
2023-02-08 16:33:00,,0823.7,5.02,0.00,23.3,22.1,00.0,32.1,25.1,11.8,0000.0,0007.08,0003.13,0002.34
2023-02-08 16:34:00,,0823.7,4.99,0.00,23.3,22.1,00.0,32.1,25.0,11.7,0000.0,0006.80,0003.11,0002.32
2023-02-08 16:35:00,,0823.7,5.03,0.00,23.3,22.2,00.0,32.1,25.1,11.4,0000.0,0007.27,0003.14,0002.31
2023-02-08 16:36:00,,0823.7,4.97,0.00,23.4,22.2,00.0,32.1,25.1,11.2,0000.0,0007.33,0003.14,0002.29
2023-02-08 16:37:00,,0823.7,5.03,0.00,23.4,22.2,00.0,32.1,25.1,11.3,0000.0,0007.13,0003.14,0002.28
2023-02-08 16:38:00,,0823.8,5.01,0.00,23.4,22.2,00.0,32.1,25.1,11.8,0000.0,0007.13,0003.14,0002.27
2023-02-08 16:39:00,,0823.7,5.02,0.00,23.4,22.2,00.0,32.1,25.1,11.7,0000.0,0006.87,0003.13,0002.26
2023-02-08 16:40:00,,0823.7,5.00,0.00,23.4,22.2,00.0,32.1,25.1,11.8,0000.0,0006.78,0003.12,0002.25
2023-02-08 16:41:00,,0823.8,5.00,0.00,23.4,22.3,00.0,32.2,25.2,11.9,0000.0,0006.49,0003.07,0002.22
2023-02-08 16:42:00,,0823.8,4.99,0.00,23.4,22.3,00.0,32.2,25.2,11.5,0000.0,0006.84,0003.08,0002.22
2023-02-08 16:43:00,,0823.8,4.96,0.00,23.5,22.3,00.0,32.2,25.3,11.2,0000.0,0007.59,0003.05,0002.23
2023-02-08 16:44:00,,0823.7,5.03,0.00,23.5,22.4,00.0,32.2,25.3,11.5,0000.0,0007.60,0003.10,0002.27
2023-02-08 16:45:00,,0823.8,4.98,0.00,23.5,22.4,00.0,32.2,25.3,11.0,0000.0,0007.41,0003.13,0002.32
2023-02-08 16:46:00,,0823.8,5.02,0.00,23.5,22.4,00.0,32.2,25.3,11.3,0000.0,0007.09,0003.19,0002.35
2023-02-08 16:47:00,,0823.7,5.02,0.00,23.5,22.4,00.0,32.2,25.3,11.6,0000.0,0007.30,0003.25,0002.40
2023-02-08 16:48:00,,0823.8,5.01,0.00,23.5,22.4,00.0,32.2,25.3,11.6,0000.0,0007.39,0003.28,0002.43
2023-02-08 16:49:00,,0823.8,4.98,0.00,23.6,22.4,00.0,32.3,25.3,11.9,0000.0,0007.57,0003.33,0002.47
2023-02-08 16:50:00,,0823.8,4.98,0.00,23.6,22.4,00.0,32.3,25.3,11.6,0000.0,0007.59,0003.35,0002.51
2023-02-08 16:51:00,,0823.8,5.02,0.00,23.6,22.5,00.0,32.3,25.3,12.0,0000.0,0007.48,0003.37,0002.56
2023-02-08 16:52:00,,0823.8,4.95,0.00,23.6,22.5,00.0,32.3,25.4,12.1,0000.0,0007.65,0003.43,0002.63
2023-02-08 16:53:00,,0823.8,5.05,0.00,23.6,22.5,00.0,32.3,25.4,12.2,0000.0,0007.55,0003.44,0002.69
2023-02-08 16:54:00,,0823.8,4.97,0.00,23.6,22.5,00.0,32.3,25.4,11.2,0000.0,0007.12,0003.48,0002.74
2023-02-08 16:55:00,,0823.8,4.99,0.00,23.6,22.5,00.0,32.3,25.4,11.3,0000.0,0007.18,0003.50,0002.80
2023-02-08 16:56:00,,0823.9,5.02,0.00,23.6,22.5,00.0,32.4,25.5,11.2,0000.0,0007.41,0003.55,0002.83
2023-02-08 16:57:00,,0823.9,5.02,0.00,23.6,22.6,00.0,32.4,25.5,11.4,0000.0,0007.47,0003.57,0002.88
2023-02-08 16:58:00,,0823.9,4.99,0.00,23.7,22.6,00.0,32.4,25.5,11.0,0000.0,0007.80,0003.59,0002.91
2023-02-08 16:59:00,,0823.9,5.00,0.00,23.7,22.6,00.0,32.4,25.5,11.5,0000.0,0008.10,0003.63,0002.94
